www.pogodaiklimat.ru

Погода и климат >> Архив погоды >> Россия >> Ленинградская область >> Вознесенье


ПОГОДА в Вознесенье

  • Прогноз погоды в Вознесенье
  • Монитор погоды в Вознесенье

АРХИВ ПОГОДЫ в Вознесенье

Время (UTC), дата Ветер
(напр.,м/с)
 
Видим.   Явления Облачность Т
(С)
Тd
(С)
f
(%)
Тe
(С)
Тes
(С)
Комфортность P
(гПа)
Po
(гПа)
Тmin
(С)
Tmax
(С)
R
(мм)
R24
(мм)
S
(см)
12 11.08 ЮВ 3 н/о н/о +14.9 +4.0 48 +14 +14 1017.4 1012.5
15 11.08 н/о н/о
18 11.08 СЗ 1 20 км 1/0
[Ac trans]
+6.8 +5.4 91 +6 +6 1017.2 1012.2 +15.7
21 11.08 СЗ 1 н/о н/о +3.6 +2.9 95 +2 +2 1017.4 1012.3
00 12.08 ЮВ 2 н/о н/о +8.3 +5.2 81 +6 +6 1017.9 1012.9
03 12.08 н/о н/о
06 12.08 ЮВ 2 20 км 8/0
[Ac trans]
+12.1 +6.8 70 +11 +14 1017.7 1012.8 +3.4
09 12.08 ЮВ 3 н/о н/о +15.3 +8.1 62 +15 +15 1017.4 1012.5
12 12.08 ЮВ 2 н/о н/о +16.4 +9.4 63 +17 +17 1016.5 1011.7
15 12.08 н/о н/о
18 12.08 ЮВ 1 20 км 4/3 600 м
[Cb cap Ac trans Ci fib]
+13.7 +10.6 82 +14 +14 1015.1 1010.2 +17.2
21 12.08 ЮВ 1 н/о н/о +9.8 +8.9 94 +9 +9 1014.4 1009.5
00 13.08 В 2 н/о н/о +11.7 +10.3 91 +11 +11 1013.0 1008.1
03 13.08 В 1 н/о н/о +12.5 +11.8 95 +12 +12 1012.0 1007.1 +9.6 6
06 13.08 В 3 10 км слаб. ливневой дождь 10/10 360 м
[Cb cap]
+13.3 +12.2 93 +12 +12 1011.0 1006.1 +9.6 7
09 13.08 В 3 н/о н/о +13.7 +12.6 93 +12 +12 1010.0 1005.2
12 13.08 В 1 н/о н/о +16.4 +14.5 89 +17 +17 1008.7 1003.9
15 13.08 В 1 н/о н/о +18.3 +15.4 83 +20 +20 1007.5 1002.8 2
18 13.08 штиль 0 20 км 9/6 930 м
[Cb cap Ac trans]
+13.7 +13.1 96 +13 +13 1007.5 1002.7 +18.9 1
21 13.08 штиль 0 н/о н/о +12.5 +12.2 98 +12 +12 1007.2 1002.4
00 14.08 ЮЗ 1 н/о н/о +13.4 +13.1 98 +13 +13 1007.4 1002.6
03 14.08 З 1 н/о н/о +12.3 +12.1 99 +12 +12 1008.3 1003.4 +12.1
06 14.08 ЮЗ 2 20 км ясно +17.6 +13.7 78 +18 +23 1008.8 1004.0 +12.1
09 14.08 З 2 н/о н/о
12 14.08 н/о н/о
15 14.08 Ю 2 н/о н/о 1004.4
18 14.08 ЮВ 1 20 км 9/6 540 м
[Cb cap Ac trans]
+14.5 +13.1 91 +15 +15 1009.5 1004.7 +23.5 0.4
21 14.08 В 1 н/о н/о +13.8 +13.0 95 +14 +14 1009.2 1004.4
00 15.08 ЮЗ 1 н/о н/о +13.3 +12.8 97 +13 +13 1008.2 1003.4
03 15.08 н/о н/о 6
06 15.08 штиль 0 10 км слаб. ливневой дождь 10/10 300 м
[Cb cap]
+13.8 +13.2 96 +13 +13 1006.7 1001.9 +12.7 12
09 15.08 З 1 н/о н/о +13.7 +12.6 93 +14 +14 1006.3 1001.5
12 15.08 н/о н/о
15 15.08 ЮЗ 2 н/о н/о +17.8 +11.9 68 +18 +18 1008.1 1003.3 5
18 15.08 Ю 1 20 км 3/1 600 м
[Cb cap Ac trans]
+12.6 +9.7 82 +13 +13 1009.7 1004.8 +18.3 2
21 15.08 ЮЗ 1 н/о н/о +12.6 +10.5 87 +13 +13 1010.3 1005.4
00 16.08 ЮЗ 2 н/о н/о +11.7 +10.3 91 +11 +11 1011.5 1006.6
03 16.08 ЮЗ 2 н/о н/о +12.0 +10.9 93 +11 +11 1012.5 1007.6 +11.4
06 16.08 ЮЗ 4 20 км 8/8 500 м
[Sc]
+14.6 +11.4 81 +13 +14 1013.7 1008.9 +11.4
09 16.08 ЮЗ 3 н/о н/о +18.7 +10.4 58 +19 +19 1013.8 1009.0
12 16.08 З 1 н/о н/о +18.7 +10.5 59 +20 +20 1014.4 1009.6
15 16.08 н/о н/о
18 16.08 ЮЗ 1 20 км ясно +10.1 +8.8 92 +10 +10 1016.4 1011.5 +20.7
21 16.08 З 1 н/о н/о +8.5 +7.3 92 +8 +8 1017.5 1012.5
00 17.08 штиль 0 н/о н/о +4.9 +4.2 95 +4 +4 1018.5 1013.4
03 17.08 штиль 0 н/о н/о +6.3 +5.9 97 +5 +5 1019.1 1014.1 +4.3
06 17.08 З 1 20 км 1/0
[Ci fib]
+17.3 +10.3 63 +18 +24 1019.7 1014.9 +4.3
09 17.08 н/о н/о
12 17.08 В 1 н/о н/о +20.8 +10.4 51 +24 +24 комфорт 1019.5 1014.7
15 17.08 штиль 0 н/о н/о +20.5 +10.3 52 +22 +22 комфорт 1019.0 1014.2
18 17.08 штиль 0 20 км ясно +10.2 +9.0 92 +9 +9 1019.5 1014.6 +21.5
21 17.08 штиль 0 н/о н/о +8.0 +7.4 96 +7 +7 1019.2 1014.2
00 18.08 штиль 0 н/о н/о +6.2 +5.6 96 +5 +5 1019.5 1014.5
03 18.08 штиль 0 н/о н/о +6.4 +5.8 96 +5 +5 1019.1 1014.1 +5.2
06 18.08 В 1 20 км 6/0
[Ci fib]
+17.3 +12.3 72 +18 +23 1018.3 1013.5 +5.2
09 18.08 В 1 н/о н/о +21.1 +11.9 56 +23 +23 комфорт 1016.9 1012.1

 

Местоположение метеостанции Вознесенье (Ленинградская область, Россия): широта 61.02 долгота 35.48 высота над уровнем моря 41 м.

В архиве по умолчанию представлена погода в Вознесенье за последнюю неделю. Архивные данные за месяц целиком и за предыдущие месяцы, начиная с января 2011 года, Вы можете получить, выбрав интересующий диапазон дат из раскрывающегося списка и нажав кнопку "Ввод!".


*Определитесь, кто Вы:
робот инопланетянин человек

Внимание! Время в таблицах - всемирное. Для получения местного времени необходимо прибавить поправку, которая равна 3 ч.

Смотрите также архив погоды в соседних городах и на ближайших метеорологических станциях:

Погода в Вытегре (Вологодская область, Россия) (52 км)
Погода в Винницах (Ленинградская область, Россия) (58 км)
Погода в Маячном (Карелия, Россия) (90 км)
Погода в Пудоже (Карелия, Россия) (103 км)
Погода в Лодейном Поле (Ленинградская область, Россия) (110 км)
Погода в Петрозаводске (Карелия, Россия) (110 км)
Погода в Пряже (Ленинградская область, Россия) (123 км)
Погода в Олонце (Карелия, Россия) (135 км)
Погода в Шугозере (Ленинградская область, Россия) (142 км)
Погода в Кондопоге (Карелия, Россия) (142 км)

Пояснения к столбцам:

Ветер - указаны скорость ветра в м/с - средняя за 10 мин, порывы в срок и между сроками (в фигурных скобках) и направление, откуда дует ветер: С - северный, СВ - северо-восточный, В - восточный, ЮВ - юго-восточный, Ю - южный, ЮЗ - юго-западный, З - западный, СЗ - северо-западный.
Видимость - горизонтальная дальность видимости в метрах или километрах. При видимости от 1 до 10 км при отсутствии осадков обычно наблюдается дымка, при ухудшении видимости до 1 км и менее - туман. В сухую погоду видимость может ухудшаться дымом, пылью или мглою.
Явления - указаны атмосферные явления, наблюдавшиеся в срок или в последний час перед сроком; фигурными скобками обозначены явления, наблюдавшиеся между сроками (за 1-3 часа до срока); квадратными скобками обозначены град или гололедные отложения с указанием их диаметра в мм.
Облачность - указаны через наклонную черту общая и нижняя облачность в баллах и высота нижней границы облаков в метрах; квадратными скобками обозначены формы облаков: Ci - перистые, Cs - перисто-слоистые, Cc - перисто-кучевые, Ac - высококучевые, As - высокослоистые, Sc - слоисто-кучевые, Ns - слоисто-дождевые, Cu - кучевые, Cb - кучево-дождевые. Подробнее классификацию облаков см. в Атласе облаков (PDF).
T - Температура воздуха - температура, измеренная на высоте 2 м над землей.
Td - Температура точки росы - температура, при понижении до которой содержащийся в воздухе водяной пар достигнет насыщения.
f - Относительная влажность воздуха - влажноcть воздуха, измеренная на высоте 2 м над землей.
Te - Эффективная температура - температура, которую ощущает одетый по сезону человек в тени. Характеристика душности погоды. При расчете учитывается влияние влажности воздуха и скорости ветра на теплоощущения человека.
Tes - Эффективная температура на солнце - температура, которую ощущает человек, с поправкой на солнечный нагрев. Характеристика знойности погоды. Зависит от высоты солнца над горизонтом, облачности и скорости ветра. Ночью, в пасмурную погоду, а также при ветре 12 м/с и более поправка равна нулю.
P - Атмосферное давление - приведенное к уровню моря атмосферное давление.
Po - Атмосферное давление - измеренное на уровне метеостанции атмосферное давление.
Tmin - Минимальная температура - минимум температуры воздуха на высоте 2 м над землей.
Tmax - Максимальная температура - максимум температуры воздуха на высоте 2 м над землей.
R - Количество осадков - Количество выпавших осадков за период времени, мм. При наведении курсора мыши на число - период времени, за который выпало указанное количество осадков.
R24 - Количество осадков - Количество выпавших осадков за 24 часа, мм.
S - Снежный покров - Высота снежного покрова, см. При наведении курсора мыши на число - состояние снежного покрова и степень покрытия местности в баллах.